Weather History for CYVR - November, 2013

Change the Weather History Date:

Friday, November 1, 2013

  Actual Average Record
Temperature  
Mean Temperature 50 °F -  
Max Temperature 53 °F 49 °F 57 °F (1997)
Min Temperature 48 °F 39 °F 30 °F (2002)
Degree Days  
Heating Degree Days 14    
Moisture  
Dew Point 50 °F    
Average Humidity 95    
Maximum Humidity 100    
Minimum Humidity 85    
Precipitation  
Precipitation 0.02 in - - ()
Sea Level Pressure  
Sea Level Pressure 30.15 in    
Wind  
Wind Speed 7 mph ()    
Max Wind Speed 12 mph    
Max Gust Speed -    
Visibility 8.7 miles    
Events Rain    
Averages and records for this station are not official NWS values.
T = Trace of Precipitation, MM = Missing Value Source: Averaged Metar Reports

Daily Weather History Graph

Daily Weather History Graph

Search for Another Location

Airport or City:

Trip Planner

Search our weather history database for the weather conditions in past years. The results will help you decide how hot, cold, wet, or windy it might be!

Date:

Astronomy

Nov. 01, 2013 Rise Set
Actual Time 8:00 AM PDT 5:50 PM PDT
Civil Twilight 7:27 AM PDT 6:24 PM PDT
Nautical Twilight 6:49 AM PDT 7:01 PM PDT
Astronomical Twilight 6:13 AM PDT 7:38 PM PDT
Moon 5:50 AM PDT (11/1) 4:53 PM PDT (11/1)
Length of Visible Light 10h 56m
Length of Day
9h 49m
Waning Crescent, 4% of the Moon is Illuminated
Nov 1
Waning Crescent
Nov 3
New
Nov 9
First Quarter
Nov 17
Full
Nov 25
Last Quarter

Hourly Weather History & Observations

Time (PDT) Temp. Dew Point Humidity Pressure Visibility Wind Dir Wind Speed Gust Speed Precip Events Conditions
12:00 AM 50.0 °F 50.0 °F 100% 30.25 in 2.0 mi East 5.8 mph - N/A   Overcast
12:49 AM 50.0 °F 50.0 °F 100% 30.26 in 1.5 mi East 4.6 mph - N/A   Overcast
1:00 AM 50.0 °F 50.0 °F 100% 30.26 in 1.5 mi East 4.6 mph - N/A   Overcast
2:00 AM 50.0 °F 50.0 °F 100% 30.26 in 1.5 mi East 5.8 mph - N/A   Overcast
2:26 AM 50.0 °F 50.0 °F 100% 30.25 in 1.0 mi East 4.6 mph - N/A   Overcast
2:51 AM 50.0 °F 50.0 °F 100% 30.26 in 1.0 mi ENE 4.6 mph - N/A   Light Drizzle
3:00 AM 50.0 °F 50.0 °F 100% 30.26 in 1.2 mi East 3.5 mph - N/A   Light Drizzle
4:00 AM 50.0 °F 50.0 °F 100% 30.25 in 1.2 mi East 6.9 mph - N/A   Light Drizzle
4:11 AM 50.0 °F 50.0 °F 100% 30.25 in 2.5 mi East 6.9 mph - N/A   Overcast
4:52 AM 50.0 °F 50.0 °F 100% 30.25 in 4.0 mi East 8.1 mph - N/A   Overcast
5:00 AM 50 °F 49 °F 96% 30.25 in 4 mi East 8.1 mph - - Rain Light Drizzle
5:00 AM 50.0 °F 50.0 °F 100% 30.25 in 4.0 mi East 6.9 mph - N/A   Overcast
6:00 AM 50.0 °F 48.2 °F 94% 30.23 in 6.0 mi East 9.2 mph - N/A   Overcast
7:00 AM 50.0 °F 50.0 °F 100% 30.23 in 8.0 mi East 10.4 mph - N/A   Overcast
7:19 AM 50.0 °F 48.2 °F 94% 30.23 in 8.0 mi East 8.1 mph - N/A   Overcast
7:53 AM 50.0 °F 48.2 °F 94% 30.23 in 6.0 mi East 8.1 mph - N/A   Overcast
8:00 AM 50.0 °F 50.0 °F 100% 30.22 in 6.0 mi East 9.2 mph - N/A   Overcast
8:22 AM 50.0 °F 48.2 °F 94% 30.23 in 6.0 mi East 9.2 mph - N/A   Overcast
8:45 AM 50.0 °F 50.0 °F 100% 30.23 in 7.0 mi East 8.1 mph - N/A   Overcast
9:00 AM 50.0 °F 50.0 °F 100% 30.22 in 8.0 mi East 10.4 mph - N/A   Overcast
9:37 AM 51.8 °F 50.0 °F 94% 30.23 in 10.0 mi East 8.1 mph - N/A Rain Light Rain
10:00 AM 51.8 °F 50.0 °F 94% 30.23 in 12.0 mi East 9.2 mph - N/A Rain Light Rain
10:29 AM 51.8 °F 50.0 °F 94% 30.22 in 12.0 mi ESE 6.9 mph - N/A   Overcast
11:00 AM 53 °F 50 °F 85% 30.22 in 15 mi ESE 8.1 mph - - Rain Light Rain
11:00 AM 53.6 °F 50.0 °F 88% 30.22 in 15.0 mi ESE 9.2 mph - N/A   Overcast
11:21 AM 51.8 °F 50.0 °F 94% 30.22 in 15.0 mi SE 9.2 mph - N/A   Overcast
11:30 AM 51.8 °F 50.0 °F 94% 30.22 in 15.0 mi SE 9.2 mph - N/A   Overcast
11:38 AM 51.8 °F 50.0 °F 94% 30.21 in 15.0 mi SE 10.4 mph - N/A Rain Light Rain Showers
12:00 PM 51.8 °F 50.0 °F 94% 30.21 in 15.0 mi SE 11.5 mph - N/A Rain Light Rain Showers
12:13 PM 51.8 °F 50.0 °F 94% 30.21 in 15.0 mi ESE 9.2 mph - N/A   Overcast
1:00 PM 53.6 °F 50.0 °F 88% 30.19 in 15.0 mi ESE 10.4 mph - N/A   Overcast
1:29 PM 53.6 °F 50.0 °F 88% 30.18 in 15.0 mi SE 9.2 mph - N/A Rain Light Rain Showers
2:00 PM 53.6 °F 50.0 °F 88% 30.17 in 15.0 mi ESE 8.1 mph - N/A Rain Light Rain Showers
2:27 PM 53.6 °F 50.0 °F 88% 30.14 in 15.0 mi East 11.5 mph - N/A   Overcast
3:00 PM 51.8 °F 50.0 °F 94% 30.14 in 12.0 mi East 9.2 mph - N/A   Overcast
3:06 PM 51.8 °F 50.0 °F 94% 30.14 in 10.0 mi East 8.1 mph - N/A Rain Light Rain Showers
3:55 PM 51.8 °F 50.0 °F 94% 30.12 in 12.0 mi ENE 10.4 mph - N/A   Overcast
4:00 PM 51.8 °F 50.0 °F 94% 30.12 in 12.0 mi East 10.4 mph - N/A   Overcast
4:42 PM 51.8 °F 50.0 °F 94% 30.09 in 12.0 mi East 8.1 mph - N/A Rain Light Rain Showers
5:00 PM 52 °F 50 °F 89% 30.09 in 7 mi East 6.9 mph - - Rain Light Rain Showers
5:00 PM 51.8 °F 50.0 °F 94% 30.09 in 8.0 mi East 6.9 mph - N/A Rain Light Rain Showers
6:00 PM 51.8 °F 50.0 °F 94% 30.04 in 8.0 mi ENE 4.6 mph - N/A Rain Light Rain
7:00 PM 51.8 °F 50.0 °F 94% 29.99 in 8.0 mi NE 11.5 mph - N/A Rain Light Rain
7:43 PM 51.8 °F 50.0 °F 94% 29.96 in 15.0 mi NE 4.6 mph - N/A   Overcast
7:55 PM 51.8 °F 50.0 °F 94% 29.96 in 12.0 mi NE 5.8 mph - N/A Rain Light Rain Showers
8:00 PM 51.8 °F 50.0 °F 94% 29.96 in 12.0 mi ENE 4.6 mph - N/A Rain Light Rain Showers
9:00 PM 50.0 °F 48.2 °F 94% 29.93 in 8.0 mi NE 3.5 mph - N/A Rain Light Rain
9:34 PM 50.0 °F 50.0 °F 100% 29.91 in 6.0 mi NE 3.5 mph - N/A Rain Rain
10:00 PM 50.0 °F 48.2 °F 94% 29.90 in 6.0 mi ENE 5.8 mph - N/A Rain Rain
10:22 PM 50.0 °F 50.0 °F 100% 29.87 in 12.0 mi NE 10.4 mph - N/A Rain Light Rain
11:00 PM 51 °F 49 °F 89% 29.85 in 7 mi ENE 9.2 mph - - Rain Light Rain
11:00 PM 51.8 °F 48.2 °F 88% 29.85 in 8.0 mi ENE 11.5 mph - N/A Rain Light Rain